SCP
1 1 1 0 0 0 0 0 0 0 0 0 0 0 0 0 0 0 0 0 0 0 0 0 0 0 0 0 0 0 0 0 0 0 0 0 0 0 0 0 0 0 0
1 1 1 0 0 0 0 0 0 0 0 0 0 0 0 0 0 0 0 0 0 0 0 0 0 0 0 0 0 0 0 0 0 0 0 0 0 0 0 0 0 0 0
2 2 2 1 0 0 0 0 0 0 0 0 0 0 0 0 0 0 0 0 0 0 0 0 0 0 0 0 0 0 0 0 0 0 0 0 0 0 0 0 0 0 0
3 2 2 1 0 0 0 0 0 0 0 0 0 0 0 0 0 0 0 0 0 0 0 0 0 0 0 0 0 0 0 0 0 0 0 0 0 0 0 0 0 0 0
3 3 2 1 0 0 0 0 0 0 0 0 0 0 0 0 0 0 0 0 0 0 0 0 0 0 0 0 0 0 0 0 0 0 0 0 0 0 0 0 0 0 0
3 3 2 1 0 0 0 0 0 0 0 0 0 0 0 0 0 0 0 0 0 0 0 0 0 0 0 0 0 0 0 0 0 0 0 0 0 0 0 0 0 0 0
2 2 2 1 1 0 0 0 0 0 0 0 0 0 0 0 0 0 0 0 0 0 0 0 0 0 0 0 0 0 0 0 0 0 0 0 0 0 0 0 0 0 0
1 1 1 1 1 0 0 0 0 0 0 0 0 0 0 0 0 0 0 0 0 0 0 0 0 0 0 0 0 0 0 0 0 0 0 0 0 0 0 0 0 0 0
1 1 1 1 1 0 0 0 0 0 0 0 0 0 0 0 0 0 0 0 0 0 0 0 0 0 0 0 0 0 0 0 0 0 0 0 0 0 0 0 0 0 0
1 1 1 1 0 0 0 0 0 0 0 0 0 0 0 0 0 0 0 0 0 0 0 0 0 0 0 0 0 0 0 0 0 0 0 0 0 0 0 0 0 0 0
0 0 0 0 0 0 0 0 0 0 0 0 0 0 0 0 0 0 0 0 0 0 0 0 0 0 0 0 0 0 0 0 0 0 0 0 0 0 0 0 0 0 0
0 0 0 0 0 0 0 0 0 0 0 0 0 0 0 0 0 0 0 0 0 0 0 0 0 0 0 0 0 0 0 0 0 0 0 0 0 0 0 0 0 0 0
0 0 0 0 0 0 0 0 0 0 0 0 0 0 0 0 0 0 0 0 0 0 0 0 0 0 0 0 0 0 0 0 0 0 0 0 0 0 0 0 0 0 0
0 0 0 0 0 0 0 0 0 0 0 0 0 0 0 0 0 0 0 0 0 0 0 0 0 0 0 0 0 0 0 0 0 0 0 0 0 0 0 0 0 0 0
0 0 0 0 0 0 0 0 0 0 0 0 0 0 0 0 0 0 0 0 0 0 0 0 0 0 0 0 0 0 0 0 0 0 0 0 0 0 0 0 0 0 0
0 0 0 0 0 0 0 0 0 0 0 0 0 0 0 0 0 0 0 0 0 0 0 0 0 0 0 0 0 0 0 0 0 0 0 0 0 0 0 0 0 0 0
0 0 0 0 0 0 0 0 0 0 0 0 0 0 0 0 0 0 0 0 0 0 0 0 0 0 0 0 0 0 0 0 0 0 0 0 0 0 0 0 0 0 0
0 0 0 0 0 0 0 0 0 0 0 0 0 0 0 0 0 0 0 0 0 0 0 0 0 0 0 0 0 0 0 0 0 0 0 0 0 0 0 0 0 0 0
0 0 0 0 0 0 0 0 0 0 0 0 0 0 0 0 0 0 0 0 0 0 0 0 0 0 0 0 0 0 0 0 0 0 0 0 0 0 0 0 0 0 0
0 0 0 0 0 0 0 0 0 0 0 0 0 0 0 0 0 0 0 0 0 0 0 0 0 0 0 0 0 0 0 0 0 0 0 0 0 0 0 0 0 0 0
0 0 0 0 0 0 0 0 0 0 0 0 0 0 0 0 0 0 0 0 0 0 0 0 0 0 0 0 0 0 0 0 0 0 0 0 0 0 0 0 0 0 0
0 0 0 0 0 0 0 0 0 0 0 0 0 0 0 0 0 0 0 0 0 0 0 0 0 0 0 0 0 0 0 0 0 0 0 0 0 0 0 0 0 0 0
0 0 0 0 0 0 0 0 0 0 0 0 0 0 0 0 0 0 0 0 0 0 0 0 0 0 0 0 0 0 0 0 0 0 0 0 0 0 0 0 0 0 0
0 0 0 0 0 0 0 0 0 0 0 0 0 0 0 0 0 0 0 0 0 0 0 0 0 0 0 0 0 0 0 0 0 0 0 0 0 0 0 0 0 0 0
0 0 0 0 0 0 0 0 0 0 0 0 0 0 0 0 0 0 0 0 0 0 0 0 0 0 0 0 0 0 0 0 0 0 0 0 0 0 0 0 0 0 0
0 0 0 0 0 0 0 0 0 0 0 0 0 0 0 0 0 0 0 0 0 0 0 0 0 0 0 0 0 0 0 0 0 0 0 0 0 0 0 0 0 0 0
Wind_Speed
7 7 8 9 9 8 8 8 7 5 4 2 2 1 0 0 1 1 1 0 1 1 1 1 2 2 1 1 1 1 1 2 1 2 2 3 2 1 1 1 1 2 3
6 8 8 8 9 9 8 7 7 6 5 3 2 2 1 1 1 1 1 1 1 1 1 1 1 1 1 2 2 1 1 1 2 2 2 2 4 3 1 1 1 1 1
13 11 9 8 9 9 9 9 7 6 5 4 3 2 2 2 2 1 2 2 1 1 1 1 1 1 0 1 1 1 1 1 1 1 2 2 1 2 3 2 1 1 0
11 11 10 9 10 9 8 8 8 7 6 5 4 3 2 1 2 2 2 2 2 1 1 1 0 0 0 0 1 1 1 2 1 1 1 1 2 1 2 3 2 2 0
13 13 12 11 9 9 9 8 8 6 5 5 5 4 2 2 1 1 1 1 2 2 1 1 1 1 0 0 1 1 1 1 1 0 0 1 1 1 2 1 3 2 2
10 10 9 8 7 7 8 8 8 6 5 5 5 5 4 2 1 0 1 1 1 2 2 1 1 0 0 0 0 1 1 1 1 1 1 1 1 0 1 0 1 2 2
10 10 10 9 9 9 9 8 9 7 6 5 5 5 5 4 3 2 1 1 1 1 2 1 1 1 1 0 1 1 1 1 1 1 1 1 1 1 1 1 0 1 2
9 11 12 11 10 10 10 9 9 7 6 6 5 5 4 3 3 3 2 2 2 2 2 2 1 1 0 1 1 1 1 1 1 1 1 1 0 1 1 2 2 1 2
10 11 10 10 10 11 10 10 10 7 7 7 6 4 4 4 4 3 2 2 2 2 1 1 1 1 0 1 1 1 0 0 1 1 1 1 0 0 0 1 2 3 1
8 9 9 10 10 10 9 9 9 9 8 7 6 5 5 5 4 3 3 3 2 2 1 1 1 1 1 1 1 0 1 0 0 0 1 0 0 0 0 1 1 2 2
9 9 9 9 9 8 8 8 8 7 7 7 6 5 5 5 4 3 4 3 2 2 2 2 2 2 1 1 1 1 0 0 0 0 1 0 0 0 0 1 1 1 2
8 9 9 8 8 8 8 8 8 8 8 7 7 6 5 4 4 4 4 4 3 2 3 2 2 2 2 1 1 1 1 1 1 1 0 1 0 1 0 1 1 0 1
5 5 6 8 9 9 9 9 9 9 8 7 7 6 5 5 5 5 4 3 3 2 2 2 2 2 2 2 2 2 1 2 2 2 1 1 1 1 1 1 1 0 0
4 4 6 7 8 9 9 9 9 8 8 7 7 7 7 7 6 5 4 4 3 2 2 2 2 2 2 1 1 1 1 1 1 2 2 2 2 3 2 1 1 1 1
1 4 6 7 7 7 8 8 8 8 8 8 8 8 7 6 5 5 4 4 3 3 2 2 1 1 1 2 2 1 1 1 1 1 1 2 3 4 3 2 2 2 1
3 4 4 5 7 8 8 8 8 8 8 9 9 8 7 6 6 6 5 4 3 2 2 2 2 1 1 2 3 3 2 1 1 1 1 1 1 2 2 3 4 4 3
4 4 5 6 8 9 9 9 10 8 8 9 9 8 8 7 7 6 5 5 4 3 2 2 2 2 2 1 2 3 2 1 1 1 0 0 0 1 1 1 2 1 1
6 5 5 5 6 6 6 6 6 8 9 9 9 8 8 8 7 6 6 5 4 4 3 3 3 2 2 2 2 3 2 1 1 1 1 1 0 0 2 2 2 1 1
6 5 5 4 4 4 5 5 6 7 9 9 9 9 9 8 8 7 7 5 4 4 3 3 3 3 2 2 3 4 2 2 1 0 0 1 1 1 3 3 2 1 2
7 6 5 3 3 3 2 5 6 7 9 10 10 9 9 10 10 9 7 5 4 5 4 3 3 3 2 2 4 5 3 2 1 1 1 2 3 2 4 3 3 2 0
8 7 5 4 4 3 2 4 5 8 9 7 8 8 9 10 9 8 6 6 5 5 4 4 3 2 3 3 4 6 3 3 3 1 1 1 3 4 4 4 2 2 2
9 7 5 5 5 3 2 4 6 6 5 5 7 8 9 9 8 8 7 6 6 6 5 4 2 1 2 2 3 6 6 5 4 2 1 0 3 4 4 3 3 4 4
9 8 6 6 6 4 3 5 6 3 3 5 7 7 8 7 7 8 8 6 6 6 5 4 4 2 1 2 4 6 7 6 3 2 3 2 3 4 3 4 5 4 3
8 8 7 7 7 6 6 5 4 3 3 5 6 6 7 7 6 6 7 7 7 7 6 6 5 4 3 2 2 2 3 4 3 2 3 5 6 4 3 4 3 2 2
8 8 7 7 8 7 7 5 3 3 4 4 5 5 6 7 6 5 5 7 7 9 9 7 7 7 6 7 9 6 4 4 3 4 2 2 2 2 2 2 2 2 2
8 9 9 9 9 8 7 6 4 4 4 4 4 4 5 5 6 5 3 1 4 8 11 11 10 6 8 11 11 10 9 8 8 6 3 2 2 2 2 2 2 2 2
Wind_Direction
184 162 154 150 148 149 146 145 143 146 131 113 111 102 89 293 302 274 270 318 334 2 31 1 348 354 5 341 350 9 357 345 360 33 359 345 327 289 248 233 206 219 221
164 164 157 155 159 159 155 153 153 151 147 147 154 165 176 219 240 282 305 286 278 310 2 15 344 345 2 6 13 43 35 352 29 84 64 5 350 340 335 312 239 236 219
175 174 167 164 160 162 163 160 159 154 154 145 113 77 54 29 13 335 305 295 278 301 359 0 358 359 51 356 333 65 99 35 353 70 117 117 255 312 328 340 352 345 220
176 172 170 168 169 170 162 154 156 155 156 143 130 134 141 175 240 246 264 291 291 291 303 339 9 30 62 350 313 75 115 112 47 358 42 144 170 136 340 338 340 334 315
175 175 176 173 170 163 158 155 153 155 157 149 145 144 153 197 246 273 312 315 310 306 304 318 15 36 23 337 12 37 73 105 124 113 30 36 48 88 118 327 329 341 326
174 172 168 160 161 158 154 152 153 161 163 158 155 162 167 173 175 293 324 303 297 307 307 291 321 335 341 351 38 60 79 81 88 96 109 122 103 100 116 158 308 317 308
168 167 167 169 168 165 163 159 158 167 174 170 174 178 177 177 191 211 217 227 267 278 279 275 274 269 253 312 65 63 54 71 90 99 116 125 175 174 146 137 274 328 315
176 178 180 177 174 172 169 165 168 174 180 181 186 187 181 178 197 208 203 207 220 238 252 255 256 255 232 126 86 68 30 89 100 104 114 107 113 136 147 159 147 48 341
185 186 183 180 177 176 177 174 175 178 185 187 184 188 189 188 199 204 198 210 228 239 243 243 241 250 214 151 123 89 330 111 141 160 134 118 279 51 138 148 154 148 134
191 190 187 186 185 183 181 177 176 182 187 187 188 190 195 197 199 193 207 221 234 231 212 213 206 201 193 164 136 150 249 102 264 169 112 84 280 7 52 113 127 146 158
197 194 192 190 187 182 178 180 184 183 187 191 192 189 198 202 200 206 219 222 226 219 213 207 196 186 186 169 148 185 180 153 300 288 150 212 198 92 45 79 91 113 145
203 196 190 183 182 186 187 188 188 188 192 191 188 193 200 196 198 213 221 219 226 232 225 212 199 197 190 172 172 198 195 194 214 236 180 247 160 132 110 106 109 147 172
206 197 189 189 192 193 194 194 195 196 193 186 186 192 197 196 203 214 217 215 217 228 231 202 202 204 199 187 197 197 201 213 218 215 211 230 166 182 175 143 137 138 88
203 200 204 204 202 200 199 198 200 197 190 184 185 192 200 200 203 207 207 206 203 203 206 208 201 199 191 181 192 184 184 210 231 224 220 217 194 195 192 178 173 148 92
243 216 217 217 213 209 208 204 201 196 189 183 189 200 201 196 195 197 202 202 198 197 191 182 196 202 190 202 193 190 178 196 256 266 240 226 204 194 183 167 170 154 135
263 247 235 226 219 214 210 206 204 197 186 187 196 197 191 188 190 195 192 186 191 192 170 175 182 196 227 211 182 167 173 182 182 238 282 271 216 195 172 154 149 153 157
294 272 248 234 227 218 208 207 205 193 187 193 196 192 187 187 192 190 182 186 191 186 180 184 175 189 239 229 184 168 155 163 182 193 220 266 81 157 133 134 111 91 122
317 299 285 267 251 227 213 208 193 187 191 195 197 194 188 190 188 182 187 192 185 184 188 188 185 189 240 234 191 148 124 120 142 175 182 169 224 139 140 123 96 56 20
312 291 278 270 261 244 219 193 191 192 194 198 199 196 190 188 184 187 192 188 178 184 190 187 184 184 237 222 167 140 123 109 66 27 124 158 166 159 129 123 115 65 0
337 327 321 323 307 278 224 192 198 195 205 208 204 196 189 187 189 192 190 182 176 184 182 182 183 181 202 190 163 148 134 128 112 55 51 94 112 113 122 132 136 126 334
338 339 338 324 295 294 221 208 211 215 217 209 199 192 189 190 190 187 182 175 174 169 173 177 185 185 194 188 169 156 146 154 144 124 68 50 81 93 106 125 139 148 134
341 341 335 321 319 321 248 230 231 235 220 198 196 194 192 192 187 179 181 175 169 169 176 173 179 200 210 189 168 158 154 149 144 154 170 150 91 88 91 97 103 98 91
331 332 327 319 320 316 283 247 253 245 213 203 203 202 194 192 181 179 180 175 172 173 180 177 183 196 202 195 169 156 151 149 145 161 163 137 96 83 77 80 83 81 85
325 327 325 319 312 310 300 272 267 230 208 214 214 202 191 188 184 182 180 179 180 181 183 184 185 185 186 187 169 152 145 139 129 115 110 97 86 78 76 69 62 65 90
322 323 318 306 301 304 301 298 281 235 227 225 218 207 196 187 184 185 188 188 194 188 184 188 181 177 192 202 183 167 166 166 160 131 98 82 78 74 62 62 64 64 70
321 321 319 310 303 302 299 296 275 244 229 231 222 212 201 188 178 170 158 175 187 192 189 180 174 185 187 178 179 175 171 166 155 134 132 138 136 134 129 115 90 72 77